TimeCST,TemperatureF,Dew PointF,Humidity,Sea Level PressureIn,VisibilityMPH,Wind Direction,Wind SpeedMPH,Gust SpeedMPH,PrecipitationIn,Events,Conditions,WindDirDegrees,DateUTC
12:53 AM,41.0,32.0,70,30.35,10.0,SSW,4.6,-,N/A,,Clear,210,2013-01-17 06:53:00
1:53 AM,39.9,30.9,70,30.35,10.0,WSW,3.5,-,N/A,,Clear,250,2013-01-17 07:53:00
2:53 AM,41.0,28.9,62,30.35,10.0,WSW,9.2,-,N/A,,Clear,250,2013-01-17 08:53:00
3:53 AM,41.0,28.0,60,30.35,9.0,West,6.9,-,N/A,,Clear,260,2013-01-17 09:53:00
4:53 AM,39.9,28.0,63,30.36,8.0,West,6.9,-,N/A,,Clear,270,2013-01-17 10:53:00
6:53 AM,37.9,28.0,68,30.39,9.0,West,6.9,-,N/A,,Clear,260,2013-01-17 12:53:00
7:53 AM,41.0,28.9,62,30.41,9.0,West,5.8,-,N/A,,Clear,270,2013-01-17 13:53:00
8:53 AM,48.0,30.0,50,30.44,9.0,West,8.1,-,N/A,,Clear,280,2013-01-17 14:53:00
9:53 AM,55.0,28.0,35,30.46,10.0,NW,15.0,-,N/A,,Clear,320,2013-01-17 15:53:00
10:53 AM,62.1,30.0,30,30.46,10.0,NNW,12.7,-,N/A,,Clear,340,2013-01-17 16:53:00
11:53 AM,63.0,30.9,30,30.44,10.0,NNW,15.0,18.4,N/A,,Clear,330,2013-01-17 17:53:00
12:53 PM,64.0,33.1,31,30.40,10.0,North,13.8,-,N/A,,Clear,10,2013-01-17 18:53:00
1:53 PM,66.0,34.0,30,30.38,10.0,North,12.7,-,N/A,,Clear,10,2013-01-17 19:53:00
2:53 PM,64.9,37.9,37,30.37,10.0,NE,11.5,-,N/A,,Clear,40,2013-01-17 20:53:00
3:53 PM,62.1,39.9,44,30.38,10.0,NE,9.2,-,N/A,,Clear,40,2013-01-17 21:53:00
4:53 PM,61.0,39.9,46,30.40,10.0,NE,8.1,-,N/A,,Clear,40,2013-01-17 22:53:00
5:53 PM,57.0,44.1,62,30.42,10.0,NE,4.6,-,N/A,,Clear,40,2013-01-17 23:53:00
6:53 PM,54.0,44.1,69,30.43,10.0,NNE,5.8,-,N/A,,Clear,30,2013-01-18 00:53:00
7:53 PM,54.0,45.0,72,30.44,10.0,NE,5.8,-,N/A,,Clear,40,2013-01-18 01:53:00
8:53 PM,53.1,45.0,74,30.45,10.0,NE,6.9,-,N/A,,Clear,40,2013-01-18 02:53:00
9:53 PM,52.0,44.1,74,30.45,10.0,NE,5.8,-,N/A,,Clear,50,2013-01-18 03:53:00
10:53 PM,51.1,45.0,80,30.45,10.0,NE,6.9,-,N/A,,Clear,40,2013-01-18 04:53:00
11:53 PM,48.0,44.1,86,30.43,10.0,NNE,6.9,-,N/A,,Clear,20,2013-01-18 05:53:00